Time,TemperatureF,DewpointF,PressureIn,WindDirection,WindDirectionDegrees,WindSpeedMPH,WindSpeedGustMPH,Humidity,HourlyPrecipIn,Conditions,Clouds,dailyrainin,SoftwareType,DateUTC
2013-04-07 00:04:00,62.2,34.9,29.80,West,263,22.0,47.0,36,0.00,,,0.00,WUHU216DAVISVP2,2013-04-07 07:04:00,
2013-04-07 00:09:00,62.1,35.5,29.80,WNW,299,33.0,47.0,37,0.00,,,0.00,WUHU216DAVISVP2,2013-04-07 07:09:00,
2013-04-07 00:14:00,62.1,35.5,29.80,WNW,289,29.0,47.0,37,0.00,,,0.00,WUHU216DAVISVP2,2013-04-07 07:14:00,
2013-04-07 00:19:00,62.0,35.9,29.81,WNW,292,33.0,47.0,38,0.00,,,0.00,WUHU216DAVISVP2,2013-04-07 07:19:00,
2013-04-07 00:24:00,61.9,35.1,29.81,WNW,294,37.0,44.0,37,0.00,,,0.00,WUHU216DAVISVP2,2013-04-07 07:24:00,
2013-04-07 00:29:00,61.8,35.7,29.81,NW,309,24.0,41.0,38,0.00,,,0.00,WUHU216DAVISVP2,2013-04-07 07:29:00,
2013-04-07 00:34:00,61.6,35.6,29.81,NW,306,23.0,41.0,38,0.00,,,0.00,WUHU216DAVISVP2,2013-04-07 07:34:00,
2013-04-07 00:39:00,61.7,35.6,29.81,NW,307,28.0,41.0,38,0.00,,,0.00,WUHU216DAVISVP2,2013-04-07 07:39:00,
2013-04-07 00:44:00,61.6,35.6,29.81,NW,311,26.0,39.0,38,0.00,,,0.00,WUHU216DAVISVP2,2013-04-07 07:44:00,
2013-04-07 00:49:00,61.5,35.5,29.81,NW,305,33.0,43.0,38,0.00,,,0.00,WUHU216DAVISVP2,2013-04-07 07:49:00,
2013-04-07 00:54:00,61.6,35.6,29.82,WNW,296,38.0,43.0,38,0.00,,,0.00,WUHU216DAVISVP2,2013-04-07 07:54:00,
2013-04-07 01:00:00,61.3,35.3,29.83,NW,306,20.0,43.0,38,0.00,,,0.00,WUHU216DAVISVP2,2013-04-07 08:00:00,
2013-04-07 01:05:00,61.4,35.5,29.83,WNW,300,31.0,38.0,38,0.00,,,0.00,WUHU216DAVISVP2,2013-04-07 08:05:00,
2013-04-07 01:10:00,61.3,36.1,29.83,WNW,296,16.0,38.0,39,0.00,,,0.00,WUHU216DAVISVP2,2013-04-07 08:10:00,
2013-04-07 01:15:00,61.3,35.5,29.84,WNW,290,12.0,38.0,38,0.00,,,0.00,WUHU216DAVISVP2,2013-04-07 08:15:00,
2013-04-07 01:20:00,61.2,34.7,29.84,WNW,294,15.0,38.0,37,0.00,,,0.00,WUHU216DAVISVP2,2013-04-07 08:20:00,
2013-04-07 01:25:00,61.1,33.2,29.84,WNW,286,13.0,36.0,35,0.00,,,0.00,WUHU216DAVISVP2,2013-04-07 08:25:00,
2013-04-07 01:30:00,60.9,33.6,29.83,West,273,12.0,30.0,36,0.00,,,0.00,WUHU216DAVISVP2,2013-04-07 08:30:00,
2013-04-07 01:35:00,61.0,32.9,29.83,West,271,11.0,27.0,35,0.00,,,0.00,WUHU216DAVISVP2,2013-04-07 08:35:00,
2013-04-07 01:40:00,61.1,33.0,29.83,West,271,11.0,23.0,35,0.00,,,0.00,WUHU216DAVISVP2,2013-04-07 08:40:00,
2013-04-07 01:45:00,61.3,32.5,29.83,West,265,15.0,25.0,34,0.00,,,0.00,WUHU216DAVISVP2,2013-04-07 08:45:00,
2013-04-07 01:50:00,61.4,32.6,29.83,WNW,293,11.0,27.0,34,0.00,,,0.00,WUHU216DAVISVP2,2013-04-07 08:50:00,
2013-04-07 01:55:00,61.2,32.4,29.83,WNW,302,7.0,29.0,34,0.00,,,0.00,WUHU216DAVISVP2,2013-04-07 08:55:00,
2013-04-07 02:00:00,61.0,32.2,29.83,West,265,25.0,29.0,34,0.00,,,0.00,WUHU216DAVISVP2,2013-04-07 09:00:00,
2013-04-07 02:05:00,61.0,32.2,29.83,West,259,19.0,29.0,34,0.00,,,0.00,WUHU216DAVISVP2,2013-04-07 09:05:00,
2013-04-07 02:11:00,61.0,32.9,29.83,WSW,255,18.0,29.0,35,0.00,,,0.00,WUHU216DAVISVP2,2013-04-07 09:11:00,
2013-04-07 02:16:00,60.9,33.0,29.83,West,277,22.0,31.0,35,0.00,,,0.00,WUHU216DAVISVP2,2013-04-07 09:16:00,
2013-04-07 02:21:00,60.9,33.0,29.83,WSW,258,26.0,31.0,35,0.00,,,0.00,WUHU216DAVISVP2,2013-04-07 09:21:00,
2013-04-07 02:26:00,60.9,33.7,29.83,West,273,25.0,33.0,36,0.00,,,0.00,WUHU216DAVISVP2,2013-04-07 09:26:00,
2013-04-07 02:32:00,60.8,33.7,29.83,WSW,254,24.0,33.0,36,0.00,,,0.00,WUHU216DAVISVP2,2013-04-07 09:32:00,
2013-04-07 02:37:00,60.6,34.0,29.82,West,268,12.0,33.0,37,0.00,,,0.00,WUHU216DAVISVP2,2013-04-07 09:37:00,
2013-04-07 02:42:00,60.5,34.6,29.81,West,272,14.0,33.0,38,0.00,,,0.00,WUHU216DAVISVP2,2013-04-07 09:42:00,
2013-04-07 02:47:00,60.5,33.9,29.81,West,264,18.0,29.0,37,0.00,,,0.00,WUHU216DAVISVP2,2013-04-07 09:47:00,
2013-04-07 02:52:00,60.7,34.1,29.81,WNW,285,17.0,31.0,37,0.00,,,0.00,WUHU216DAVISVP2,2013-04-07 09:52:00,
2013-04-07 02:57:00,60.5,33.9,29.80,WNW,288,10.0,31.0,37,0.00,,,0.00,WUHU216DAVISVP2,2013-04-07 09:57:00,
2013-04-07 03:02:00,60.4,33.8,29.80,WNW,290,10.0,31.0,37,0.00,,,0.00,WUHU216DAVISVP2,2013-04-07 10:02:00,
2013-04-07 03:07:00,60.5,34.6,29.80,West,267,15.0,31.0,38,0.00,,,0.00,WUHU216DAVISVP2,2013-04-07 10:07:00,
2013-04-07 03:12:00,60.5,34.6,29.79,WNW,292,12.0,29.0,38,0.00,,,0.00,WUHU216DAVISVP2,2013-04-07 10:12:00,
2013-04-07 03:17:00,60.6,34.7,29.80,NW,313,15.0,29.0,38,0.00,,,0.00,WUHU216DAVISVP2,2013-04-07 10:17:00,
2013-04-07 03:22:00,60.7,34.8,29.79,WSW,247,7.0,29.0,38,0.00,,,0.00,WUHU216DAVISVP2,2013-04-07 10:22:00,
2013-04-07 03:27:00,60.8,34.2,29.79,WNW,296,17.0,26.0,37,0.00,,,0.00,WUHU216DAVISVP2,2013-04-07 10:27:00,
2013-04-07 03:32:00,61.2,33.8,29.79,NW,308,23.0,29.0,36,0.00,,,0.00,WUHU216DAVISVP2,2013-04-07 10:32:00,
2013-04-07 03:38:00,61.2,33.8,29.80,NW,320,15.0,32.0,36,0.00,,,0.00,WUHU216DAVISVP2,2013-04-07 10:38:00,
2013-04-07 03:43:00,61.5,34.1,29.80,NW,307,25.0,36.0,36,0.00,,,0.00,WUHU216DAVISVP2,2013-04-07 10:43:00,
2013-04-07 03:48:00,61.6,33.5,29.80,WNW,298,20.0,38.0,35,0.00,,,0.00,WUHU216DAVISVP2,2013-04-07 10:48:00,
2013-04-07 03:53:00,61.4,34.0,29.81,NW,312,24.0,38.0,36,0.00,,,0.00,WUHU216DAVISVP2,2013-04-07 10:53:00,
2013-04-07 03:58:00,61.9,33.7,29.80,NW,306,29.0,38.0,35,0.00,,,0.00,WUHU216DAVISVP2,2013-04-07 10:58:00,
2013-04-07 04:03:00,62.0,33.8,29.81,WNW,295,29.0,38.0,35,0.00,,,0.00,WUHU216DAVISVP2,2013-04-07 11:03:00,
2013-04-07 04:08:00,62.0,33.1,29.80,WNW,292,26.0,38.0,34,0.00,,,0.00,WUHU216DAVISVP2,2013-04-07 11:08:00,
2013-04-07 04:13:00,61.8,32.9,29.80,WNW,298,30.0,38.0,34,0.00,,,0.00,WUHU216DAVISVP2,2013-04-07 11:13:00,
2013-04-07 04:18:00,62.0,33.1,29.81,NW,304,23.0,38.0,34,0.00,,,0.00,WUHU216DAVISVP2,2013-04-07 11:18:00,
2013-04-07 04:23:00,61.7,33.6,29.80,WNW,300,25.0,36.0,35,0.00,,,0.00,WUHU216DAVISVP2,2013-04-07 11:23:00,
2013-04-07 04:28:00,61.8,33.6,29.80,NW,309,20.0,36.0,35,0.00,,,0.00,WUHU216DAVISVP2,2013-04-07 11:28:00,
2013-04-07 04:34:00,61.6,32.7,29.80,NNW,340,17.0,34.0,34,0.00,,,0.00,WUHU216DAVISVP2,2013-04-07 11:34:00,
2013-04-07 04:39:00,61.5,32.6,29.80,NW,308,10.0,34.0,34,0.00,,,0.00,WUHU216DAVISVP2,2013-04-07 11:39:00,
2013-04-07 04:44:00,61.9,33.0,29.80,NW,307,12.0,30.0,34,0.00,,,0.00,WUHU216DAVISVP2,2013-04-07 11:44:00,
2013-04-07 04:49:00,62.2,31.8,29.81,NNW,327,22.0,30.0,32,0.00,,,0.00,WUHU216DAVISVP2,2013-04-07 11:49:00,
2013-04-07 04:54:00,62.3,31.8,29.80,NW,319,16.0,28.0,32,0.00,,,0.00,WUHU216DAVISVP2,2013-04-07 11:54:00,
2013-04-07 04:59:00,62.3,31.1,29.80,WNW,302,20.0,28.0,31,0.00,,,0.00,WUHU216DAVISVP2,2013-04-07 11:59:00,
2013-04-07 05:04:00,63.3,31.1,29.80,NW,319,19.0,28.0,30,0.00,,,0.00,WUHU216DAVISVP2,2013-04-07 12:04:00,
2013-04-07 05:09:00,62.4,31.9,29.80,NW,310,21.0,35.0,32,0.00,,,0.00,WUHU216DAVISVP2,2013-04-07 12:09:00,
2013-04-07 05:14:00,62.5,31.2,29.79,WNW,298,15.0,35.0,31,0.00,,,0.00,WUHU216DAVISVP2,2013-04-07 12:14:00,
2013-04-07 05:19:00,63.0,31.7,29.79,NW,304,18.0,35.0,31,0.00,,,0.00,WUHU216DAVISVP2,2013-04-07 12:19:00,
2013-04-07 05:24:00,62.5,32.0,29.80,NW,319,12.0,35.0,32,0.00,,,0.00,WUHU216DAVISVP2,2013-04-07 12:24:00,
2013-04-07 05:30:00,62.6,31.3,29.80,WNW,292,21.0,30.0,31,0.00,,,0.00,WUHU216DAVISVP2,2013-04-07 12:30:00,
2013-04-07 05:35:00,62.8,32.3,29.80,NW,317,17.0,33.0,32,0.00,,,0.00,WUHU216DAVISVP2,2013-04-07 12:35:00,
2013-04-07 05:40:00,62.4,31.9,29.80,NW,306,22.0,33.0,32,0.00,,,0.00,WUHU216DAVISVP2,2013-04-07 12:40:00,
2013-04-07 05:45:00,62.3,31.1,29.80,NW,317,25.0,33.0,31,0.00,,,0.00,WUHU216DAVISVP2,2013-04-07 12:45:00,
2013-04-07 05:50:00,62.3,31.8,29.80,WNW,295,23.0,33.0,32,0.00,,,0.00,WUHU216DAVISVP2,2013-04-07 12:50:00,
2013-04-07 05:55:00,62.2,31.8,29.80,NNW,332,16.0,31.0,32,0.00,,,0.00,WUHU216DAVISVP2,2013-04-07 12:55:00,
2013-04-07 06:00:00,62.0,31.6,29.81,West,280,22.0,30.0,32,0.00,,,0.00,WUHU216DAVISVP2,2013-04-07 13:00:00,
2013-04-07 06:05:00,61.5,32.6,29.81,NW,320,11.0,31.0,34,0.00,,,0.00,WUHU216DAVISVP2,2013-04-07 13:05:00,
2013-04-07 06:10:00,61.6,31.2,29.81,NW,309,17.0,31.0,32,0.00,,,0.00,WUHU216DAVISVP2,2013-04-07 13:10:00,
2013-04-07 06:15:00,61.7,32.8,29.82,NNW,329,2.0,31.0,34,0.00,,,0.00,WUHU216DAVISVP2,2013-04-07 13:15:00,
2013-04-07 06:20:00,61.5,31.1,29.82,ENE,78,7.0,31.0,32,0.00,,,0.00,WUHU216DAVISVP2,2013-04-07 13:20:00,
2013-04-07 06:25:00,61.4,31.8,29.82,SE,126,7.0,22.0,33,0.00,,,0.00,WUHU216DAVISVP2,2013-04-07 13:25:00,
2013-04-07 06:31:00,61.4,31.1,29.82,ESE,119,4.0,14.0,32,0.00,,,0.00,WUHU216DAVISVP2,2013-04-07 13:31:00,
2013-04-07 06:36:00,61.2,31.6,29.83,East,99,6.0,12.0,33,0.00,,,0.00,WUHU216DAVISVP2,2013-04-07 13:36:00,
2013-04-07 06:41:00,60.9,31.4,29.83,SE,140,8.0,12.0,33,0.00,,,0.00,WUHU216DAVISVP2,2013-04-07 13:41:00,
2013-04-07 06:46:00,60.9,31.4,29.83,East,79,9.0,12.0,33,0.00,,,0.00,WUHU216DAVISVP2,2013-04-07 13:46:00,
2013-04-07 06:51:00,60.9,31.4,29.83,NE,46,4.0,13.0,33,0.00,,,0.00,WUHU216DAVISVP2,2013-04-07 13:51:00,
2013-04-07 06:56:00,61.1,31.6,29.83,SE,128,12.0,13.0,33,0.00,,,0.00,WUHU216DAVISVP2,2013-04-07 13:56:00,
2013-04-07 07:01:00,60.6,31.1,29.84,SE,142,9.0,12.0,33,0.00,,,0.00,WUHU216DAVISVP2,2013-04-07 14:01:00,
2013-04-07 07:07:00,60.3,32.3,29.84,SE,136,0.0,12.0,35,0.00,,,0.00,WUHU216DAVISVP2,2013-04-07 14:07:00,
2013-04-07 07:12:00,60.2,32.2,29.84,SE,136,2.0,12.0,35,0.00,,,0.00,WUHU216DAVISVP2,2013-04-07 14:12:00,
2013-04-07 07:17:00,60.3,31.6,29.84,ESE,109,5.0,10.0,34,0.00,,,0.00,WUHU216DAVISVP2,2013-04-07 14:17:00,
2013-04-07 07:22:00,60.4,31.7,29.84,SSE,151,5.0,10.0,34,0.00,,,0.00,WUHU216DAVISVP2,2013-04-07 14:22:00,
2013-04-07 07:27:00,60.6,31.9,29.84,SSE,147,2.0,10.0,34,0.00,,,0.00,WUHU216DAVISVP2,2013-04-07 14:27:00,
2013-04-07 07:32:00,60.9,31.4,29.85,SSE,147,0.0,10.0,33,0.00,,,0.00,WUHU216DAVISVP2,2013-04-07 14:32:00,
2013-04-07 07:37:00,61.0,32.2,29.85,SSE,147,2.0,8.0,34,0.00,,,0.00,WUHU216DAVISVP2,2013-04-07 14:37:00,
2013-04-07 07:42:00,61.1,32.3,29.85,SSE,147,4.0,6.0,34,0.00,,,0.00,WUHU216DAVISVP2,2013-04-07 14:42:00,
2013-04-07 07:47:00,61.2,32.4,29.85,SSE,148,4.0,10.0,34,0.00,,,0.00,WUHU216DAVISVP2,2013-04-07 14:47:00,
2013-04-07 07:53:00,61.4,32.6,29.85,SSE,148,5.0,10.0,34,0.00,,,0.00,WUHU216DAVISVP2,2013-04-07 14:53:00,
2013-04-07 07:58:00,61.6,32.7,29.85,East,89,7.0,10.0,34,0.00,,,0.00,WUHU216DAVISVP2,2013-04-07 14:58:00,
2013-04-07 08:03:00,61.8,32.9,29.85,NNW,333,2.0,15.0,34,0.00,,,0.00,WUHU216DAVISVP2,2013-04-07 15:03:00,
2013-04-07 08:08:00,62.1,33.2,29.84,NNE,26,2.0,15.0,34,0.00,,,0.00,WUHU216DAVISVP2,2013-04-07 15:08:00,
2013-04-07 08:13:00,62.2,33.3,29.84,NNW,336,9.0,15.0,34,0.00,,,0.00,WUHU216DAVISVP2,2013-04-07 15:13:00,
2013-04-07 08:18:00,62.3,32.6,29.84,WNW,297,9.0,15.0,33,0.00,,,0.00,WUHU216DAVISVP2,2013-04-07 15:18:00,
2013-04-07 08:23:00,62.4,32.7,29.84,NNW,328,10.0,15.0,33,0.00,,,0.00,WUHU216DAVISVP2,2013-04-07 15:23:00,
2013-04-07 08:28:00,62.7,32.2,29.84,NNW,339,7.0,15.0,32,0.00,,,0.00,WUHU216DAVISVP2,2013-04-07 15:28:00,
2013-04-07 08:33:00,63.0,32.5,29.84,NNW,344,8.0,16.0,32,0.00,,,0.00,WUHU216DAVISVP2,2013-04-07 15:33:00,
2013-04-07 08:38:00,63.1,32.5,29.84,NW,322,14.0,17.0,32,0.00,,,0.00,WUHU216DAVISVP2,2013-04-07 15:38:00,
2013-04-07 08:43:00,63.3,31.9,29.84,NNW,332,8.0,17.0,31,0.00,,,0.00,WUHU216DAVISVP2,2013-04-07 15:43:00,
2013-04-07 08:48:00,63.6,31.4,29.84,WNW,302,10.0,17.0,30,0.00,,,0.00,WUHU216DAVISVP2,2013-04-07 15:48:00,
2013-04-07 08:53:00,63.8,32.4,29.85,WNW,292,7.0,17.0,31,0.00,,,0.00,WUHU216DAVISVP2,2013-04-07 15:53:00,
2013-04-07 08:59:00,63.7,32.3,29.84,NNW,331,5.0,18.0,31,0.00,,,0.00,WUHU216DAVISVP2,2013-04-07 15:59:00,
2013-04-07 09:04:00,64.0,32.5,29.85,NW,309,13.0,18.0,31,0.00,,,0.00,WUHU216DAVISVP2,2013-04-07 16:04:00,
2013-04-07 09:09:00,64.1,32.6,29.85,WNW,299,11.0,18.0,31,0.00,,,0.00,WUHU216DAVISVP2,2013-04-07 16:09:00,
2013-04-07 09:14:00,64.3,32.8,29.85,West,277,15.0,19.0,31,0.00,,,0.00,WUHU216DAVISVP2,2013-04-07 16:14:00,
2013-04-07 09:19:00,64.6,32.3,29.85,WNW,292,3.0,19.0,30,0.00,,,0.00,WUHU216DAVISVP2,2013-04-07 16:19:00,
2013-04-07 09:24:00,65.0,31.8,29.85,West,280,7.0,19.0,29,0.00,,,0.00,WUHU216DAVISVP2,2013-04-07 16:24:00,
2013-04-07 09:29:00,65.6,31.4,29.85,WNW,296,12.0,19.0,28,0.00,,,0.00,WUHU216DAVISVP2,2013-04-07 16:29:00,
2013-04-07 09:35:00,65.6,36.3,29.85,SW,214,9.0,17.0,34,0.00,,,0.00,WUHU216DAVISVP2,2013-04-07 16:35:00,
2013-04-07 09:40:00,64.5,34.5,29.85,SSW,203,3.0,17.0,33,0.00,,,0.00,WUHU216DAVISVP2,2013-04-07 16:40:00,
2013-04-07 09:45:00,64.3,35.1,29.85,SSW,205,8.0,17.0,34,0.00,,,0.00,WUHU216DAVISVP2,2013-04-07 16:45:00,
2013-04-07 09:50:00,64.3,36.6,29.85,SW,232,16.0,18.0,36,0.00,,,0.00,WUHU216DAVISVP2,2013-04-07 16:50:00,
2013-04-07 09:55:00,63.9,36.2,29.85,SW,232,16.0,18.0,36,0.00,,,0.00,WUHU216DAVISVP2,2013-04-07 16:55:00,
2013-04-07 10:00:00,63.5,37.3,29.85,SW,230,13.0,18.0,38,0.00,,,0.00,WUHU216DAVISVP2,2013-04-07 17:00:00,
2013-04-07 10:05:00,63.5,37.9,29.85,SW,220,14.0,18.0,39,0.00,,,0.00,WUHU216DAVISVP2,2013-04-07 17:05:00,
2013-04-07 10:10:00,63.8,36.1,29.85,SSW,205,7.0,18.0,36,0.00,,,0.00,WUHU216DAVISVP2,2013-04-07 17:10:00,
2013-04-07 10:15:00,65.3,32.9,29.85,SSW,207,11.0,18.0,30,0.00,,,0.00,WUHU216DAVISVP2,2013-04-07 17:15:00,
2013-04-07 10:20:00,65.6,36.3,29.85,South,190,9.0,18.0,34,0.00,,,0.00,WUHU216DAVISVP2,2013-04-07 17:20:00,
2013-04-07 10:25:00,66.5,31.3,29.85,NNE,27,2.0,14.0,27,0.00,,,0.00,WUHU216DAVISVP2,2013-04-07 17:25:00,
2013-04-07 10:30:00,67.7,29.5,29.85,NNW,342,5.0,13.0,24,0.00,,,0.00,WUHU216DAVISVP2,2013-04-07 17:30:00,
2013-04-07 10:36:00,68.7,29.3,29.85,WNW,290,3.0,13.0,23,0.00,,,0.00,WUHU216DAVISVP2,2013-04-07 17:36:00,
2013-04-07 10:41:00,68.8,34.2,29.85,WSW,255,13.0,18.0,28,0.00,,,0.00,WUHU216DAVISVP2,2013-04-07 17:41:00,
2013-04-07 10:46:00,66.5,36.3,29.85,SW,232,14.0,18.0,33,0.00,,,0.00,WUHU216DAVISVP2,2013-04-07 17:46:00,
2013-04-07 10:51:00,65.9,35.8,29.85,West,261,6.0,18.0,33,0.00,,,0.00,WUHU216DAVISVP2,2013-04-07 17:51:00,
2013-04-07 10:56:00,66.5,35.5,29.85,WSW,248,8.0,18.0,32,0.00,,,0.00,WUHU216DAVISVP2,2013-04-07 17:56:00,
2013-04-07 11:01:00,67.5,33.1,29.85,SW,236,7.0,18.0,28,0.00,,,0.00,WUHU216DAVISVP2,2013-04-07 18:01:00,
2013-04-07 11:06:00,68.3,33.8,29.85,West,264,10.0,17.0,28,0.00,,,0.00,WUHU216DAVISVP2,2013-04-07 18:06:00,
2013-04-07 11:12:00,68.8,33.3,29.85,WSW,246,11.0,17.0,27,0.00,,,0.00,WUHU216DAVISVP2,2013-04-07 18:12:00,
2013-04-07 11:17:00,69.5,36.5,29.85,SW,225,13.0,17.0,30,0.00,,,0.00,WUHU216DAVISVP2,2013-04-07 18:17:00,
2013-04-07 11:22:00,68.4,38.0,29.85,SW,227,18.0,20.0,33,0.00,,,0.00,WUHU216DAVISVP2,2013-04-07 18:22:00,
2013-04-07 11:27:00,67.6,37.3,29.85,SW,230,9.0,21.0,33,0.00,,,0.00,WUHU216DAVISVP2,2013-04-07 18:27:00,
2013-04-07 11:32:00,67.6,36.7,29.85,WSW,255,10.0,21.0,32,0.00,,,0.00,WUHU216DAVISVP2,2013-04-07 18:32:00,
2013-04-07 11:37:00,66.8,39.0,29.85,SSW,213,16.0,21.0,36,0.00,,,0.00,WUHU216DAVISVP2,2013-04-07 18:37:00,
2013-04-07 11:42:00,66.2,39.0,29.85,SW,218,20.0,25.0,37,0.00,,,0.00,WUHU216DAVISVP2,2013-04-07 18:42:00,
2013-04-07 11:47:00,67.0,39.0,29.84,SW,214,18.0,25.0,36,0.00,,,0.00,WUHU216DAVISVP2,2013-04-07 18:47:00,
2013-04-07 11:52:00,67.1,37.8,29.84,SW,232,19.0,25.0,34,0.00,,,0.00,WUHU216DAVISVP2,2013-04-07 18:52:00,
2013-04-07 11:57:00,67.5,39.6,29.84,SSW,211,12.0,25.0,36,0.00,,,0.00,WUHU216DAVISVP2,2013-04-07 18:57:00,
2013-04-07 12:02:00,67.3,39.2,29.84,SW,215,14.0,23.0,36,0.00,,,0.00,WUHU216DAVISVP2,2013-04-07 19:02:00,
2013-04-07 12:07:00,66.5,39.2,29.83,SW,229,18.0,24.0,37,0.00,,,0.00,WUHU216DAVISVP2,2013-04-07 19:07:00,
2013-04-07 12:12:00,66.1,39.6,29.83,WSW,239,19.0,24.0,38,0.00,,,0.00,WUHU216DAVISVP2,2013-04-07 19:12:00,
2013-04-07 12:18:00,67.0,39.0,29.83,SW,223,20.0,24.0,36,0.00,,,0.00,WUHU216DAVISVP2,2013-04-07 19:18:00,
2013-04-07 12:23:00,67.7,38.9,29.83,SW,230,11.0,24.0,35,0.00,,,0.00,WUHU216DAVISVP2,2013-04-07 19:23:00,
2013-04-07 12:28:00,68.7,39.2,29.83,SW,234,15.0,24.0,34,0.00,,,0.00,WUHU216DAVISVP2,2013-04-07 19:28:00,
2013-04-07 12:33:00,68.6,38.3,29.83,SW,231,14.0,23.0,33,0.00,,,0.00,WUHU216DAVISVP2,2013-04-07 19:33:00,
2013-04-07 12:38:00,68.7,37.5,29.82,SW,221,15.0,23.0,32,0.00,,,0.00,WUHU216DAVISVP2,2013-04-07 19:38:00,
2013-04-07 12:43:00,69.1,38.6,29.81,SW,234,15.0,23.0,33,0.00,,,0.00,WUHU216DAVISVP2,2013-04-07 19:43:00,
2013-04-07 12:48:00,70.0,38.6,29.81,SW,232,18.0,23.0,32,0.00,,,0.00,WUHU216DAVISVP2,2013-04-07 19:48:00,
2013-04-07 12:53:00,70.9,38.6,29.80,SSW,200,13.0,23.0,31,0.00,,,0.00,WUHU216DAVISVP2,2013-04-07 19:53:00,
2013-04-07 12:59:00,71.0,38.7,29.80,WSW,246,13.0,22.0,31,0.00,,,0.00,WUHU216DAVISVP2,2013-04-07 19:59:00,
2013-04-07 13:04:00,71.5,38.4,29.80,SW,226,13.0,20.0,30,0.00,,,0.00,WUHU216DAVISVP2,2013-04-07 20:04:00,
2013-04-07 13:09:00,71.9,38.6,29.79,SW,219,14.0,20.0,30,0.00,,,0.00,WUHU216DAVISVP2,2013-04-07 20:09:00,
2013-04-07 13:14:00,71.4,37.3,29.79,SW,222,16.0,22.0,29,0.00,,,0.00,WUHU216DAVISVP2,2013-04-07 20:14:00,
2013-04-07 13:19:00,71.5,36.5,29.79,WSW,242,17.0,22.0,28,0.00,,,0.00,WUHU216DAVISVP2,2013-04-07 20:19:00,
2013-04-07 13:24:00,71.7,37.6,29.78,WSW,237,14.0,22.0,29,0.00,,,0.00,WUHU216DAVISVP2,2013-04-07 20:24:00,
2013-04-07 13:29:00,71.5,37.6,29.78,SW,222,18.0,22.0,29,0.00,,,0.00,WUHU216DAVISVP2,2013-04-07 20:29:00,
2013-04-07 13:34:00,71.8,37.8,29.78,SW,216,17.0,22.0,29,0.00,,,0.00,WUHU216DAVISVP2,2013-04-07 20:34:00,
2013-04-07 13:39:00,71.5,38.3,29.78,SW,219,13.0,24.0,30,0.00,,,0.00,WUHU216DAVISVP2,2013-04-07 20:39:00,
2013-04-07 13:44:00,71.4,37.3,29.78,SW,220,26.0,26.0,29,0.00,,,0.00,WUHU216DAVISVP2,2013-04-07 20:44:00,
2013-04-07 13:49:00,70.7,37.6,29.78,WSW,238,17.0,27.0,30,0.00,,,0.00,WUHU216DAVISVP2,2013-04-07 20:49:00,
2013-04-07 13:54:00,70.8,38.5,29.77,SW,232,22.0,27.0,31,0.00,,,0.00,WUHU216DAVISVP2,2013-04-07 20:54:00,
2013-04-07 13:59:00,70.9,39.4,29.77,SW,223,18.0,27.0,32,0.00,,,0.00,WUHU216DAVISVP2,2013-04-07 20:59:00,
2013-04-07 14:05:00,71.3,38.9,29.77,SW,225,15.0,27.0,31,0.00,,,0.00,WUHU216DAVISVP2,2013-04-07 21:05:00,
2013-04-07 14:10:00,72.1,38.8,29.77,SW,223,16.0,25.0,30,0.00,,,0.00,WUHU216DAVISVP2,2013-04-07 21:10:00,
2013-04-07 14:15:00,72.3,38.9,29.76,SSW,204,17.0,25.0,30,0.00,,,0.00,WUHU216DAVISVP2,2013-04-07 21:15:00,
2013-04-07 14:20:00,72.3,39.8,29.76,SSW,209,21.0,28.0,31,0.00,,,0.00,WUHU216DAVISVP2,2013-04-07 21:20:00,
2013-04-07 14:25:00,72.6,39.2,29.75,SW,232,18.0,28.0,30,0.00,,,0.00,WUHU216DAVISVP2,2013-04-07 21:25:00,
2013-04-07 14:30:00,72.3,39.8,29.75,WSW,245,18.0,28.0,31,0.00,,,0.00,WUHU216DAVISVP2,2013-04-07 21:30:00,
2013-04-07 14:35:00,72.4,39.9,29.75,WSW,240,18.0,27.0,31,0.00,,,0.00,WUHU216DAVISVP2,2013-04-07 21:35:00,
2013-04-07 14:40:00,72.2,40.5,29.75,WSW,240,21.0,27.0,32,0.00,,,0.00,WUHU216DAVISVP2,2013-04-07 21:40:00,
2013-04-07 14:45:00,71.7,40.9,29.74,SW,227,17.0,28.0,33,0.00,,,0.00,WUHU216DAVISVP2,2013-04-07 21:45:00,
2013-04-07 14:51:00,71.8,41.7,29.74,SW,226,22.0,28.0,34,0.00,,,0.00,WUHU216DAVISVP2,2013-04-07 21:51:00,
2013-04-07 14:56:00,70.8,40.9,29.74,WSW,240,22.0,29.0,34,0.00,,,0.00,WUHU216DAVISVP2,2013-04-07 21:56:00,
2013-04-07 15:01:00,70.4,41.3,29.74,SW,232,23.0,29.0,35,0.00,,,0.00,WUHU216DAVISVP2,2013-04-07 22:01:00,
2013-04-07 15:06:00,70.2,41.8,29.74,SW,215,23.0,29.0,36,0.00,,,0.00,WUHU216DAVISVP2,2013-04-07 22:06:00,
2013-04-07 15:11:00,69.5,41.2,29.74,SSW,213,23.0,31.0,36,0.00,,,0.00,WUHU216DAVISVP2,2013-04-07 22:11:00,
2013-04-07 15:16:00,69.3,41.7,29.74,SSW,197,21.0,33.0,37,0.00,,,0.00,WUHU216DAVISVP2,2013-04-07 22:16:00,
2013-04-07 15:21:00,69.0,40.8,29.74,SW,221,24.0,33.0,36,0.00,,,0.00,WUHU216DAVISVP2,2013-04-07 22:21:00,
2013-04-07 15:26:00,69.2,41.7,29.73,SW,217,16.0,33.0,37,0.00,,,0.00,WUHU216DAVISVP2,2013-04-07 22:26:00,
2013-04-07 15:31:00,69.5,41.2,29.73,SSW,201,18.0,31.0,36,0.00,,,0.00,WUHU216DAVISVP2,2013-04-07 22:31:00,
2013-04-07 15:36:00,69.2,41.7,29.73,WSW,241,13.0,31.0,37,0.00,,,0.00,WUHU216DAVISVP2,2013-04-07 22:36:00,
2013-04-07 15:41:00,69.3,41.0,29.72,SW,234,13.0,28.0,36,0.00,,,0.00,WUHU216DAVISVP2,2013-04-07 22:41:00,
2013-04-07 15:47:00,69.8,40.2,29.72,SW,223,17.0,28.0,34,0.00,,,0.00,WUHU216DAVISVP2,2013-04-07 22:47:00,
2013-04-07 15:52:00,69.7,40.8,29.72,SW,236,16.0,25.0,35,0.00,,,0.00,WUHU216DAVISVP2,2013-04-07 22:52:00,
2013-04-07 15:57:00,69.8,40.9,29.72,WSW,243,18.0,25.0,35,0.00,,,0.00,WUHU216DAVISVP2,2013-04-07 22:57:00,
2013-04-07 16:02:00,69.8,40.7,29.71,WSW,240,23.0,23.0,35,0.00,,,0.00,WUHU216DAVISVP2,2013-04-07 23:02:00,
2013-04-07 16:07:00,69.1,40.1,29.71,SW,227,23.0,34.0,35,0.00,,,0.00,WUHU216DAVISVP2,2013-04-07 23:07:00,
2013-04-07 16:12:00,67.5,40.8,29.71,SW,223,18.0,34.0,38,0.00,,,0.00,WUHU216DAVISVP2,2013-04-07 23:12:00,
2013-04-07 16:17:00,67.0,41.1,29.70,WSW,246,24.0,34.0,39,0.00,,,0.00,WUHU216DAVISVP2,2013-04-07 23:17:00,
2013-04-07 16:22:00,66.9,40.3,29.70,WSW,251,20.0,36.0,38,0.00,,,0.00,WUHU216DAVISVP2,2013-04-07 23:22:00,
2013-04-07 16:27:00,66.7,40.1,29.69,WSW,252,25.0,40.0,38,0.00,,,0.00,WUHU216DAVISVP2,2013-04-07 23:27:00,
2013-04-07 16:32:00,66.1,40.3,29.69,WSW,254,22.0,40.0,39,0.00,,,0.00,WUHU216DAVISVP2,2013-04-07 23:32:00,
2013-04-07 16:37:00,65.7,39.9,29.69,WSW,249,27.0,40.0,39,0.00,,,0.00,WUHU216DAVISVP2,2013-04-07 23:37:00,
2013-04-07 16:42:00,66.5,39.9,29.70,WSW,247,25.0,40.0,38,0.00,,,0.00,WUHU216DAVISVP2,2013-04-07 23:42:00,
2013-04-07 16:47:00,66.9,40.3,29.70,WSW,258,28.0,39.0,38,0.00,,,0.00,WUHU216DAVISVP2,2013-04-07 23:47:00,
2013-04-07 16:53:00,66.5,40.6,29.69,WSW,242,22.0,38.0,39,0.00,,,0.00,WUHU216DAVISVP2,2013-04-07 23:53:00,
2013-04-07 16:58:00,66.5,39.9,29.69,West,267,16.0,38.0,38,0.00,,,0.00,WUHU216DAVISVP2,2013-04-07 23:58:00,
2013-04-07 17:03:00,66.2,40.4,29.69,WSW,256,23.0,38.0,39,0.00,,,0.00,WUHU216DAVISVP2,2013-04-08 00:03:00,
2013-04-07 17:08:00,66.5,39.9,29.69,WSW,258,26.0,35.0,38,0.00,,,0.00,WUHU216DAVISVP2,2013-04-08 00:08:00,
2013-04-07 17:13:00,66.9,39.6,29.70,SSW,211,19.0,34.0,37,0.00,,,0.00,WUHU216DAVISVP2,2013-04-08 00:13:00,
2013-04-07 17:18:00,66.4,39.9,29.70,SW,225,24.0,36.0,38,0.00,,,0.00,WUHU216DAVISVP2,2013-04-08 00:18:00,
2013-04-07 17:23:00,65.9,39.4,29.69,SW,236,21.0,40.0,38,0.00,,,0.00,WUHU216DAVISVP2,2013-04-08 00:23:00,
2013-04-07 17:28:00,65.5,39.7,29.69,WSW,254,25.0,40.0,39,0.00,,,0.00,WUHU216DAVISVP2,2013-04-08 00:28:00,
2013-04-07 17:33:00,65.0,39.9,29.68,WSW,256,25.0,42.0,40,0.00,,,0.00,WUHU216DAVISVP2,2013-04-08 00:33:00,
2013-04-07 17:38:00,64.9,39.9,29.68,WSW,257,27.0,42.0,40,0.00,,,0.00,WUHU216DAVISVP2,2013-04-08 00:38:00,
2013-04-07 17:44:00,64.7,39.7,29.67,SW,234,34.0,42.0,40,0.00,,,0.00,WUHU216DAVISVP2,2013-04-08 00:44:00,
2013-04-07 17:49:00,65.0,39.3,29.67,West,267,24.0,42.0,39,0.00,,,0.00,WUHU216DAVISVP2,2013-04-08 00:49:00,
2013-04-07 17:54:00,65.4,37.6,29.66,WSW,248,28.0,37.0,36,0.00,,,0.00,WUHU216DAVISVP2,2013-04-08 00:54:00,
2013-04-07 17:59:00,65.3,38.2,29.67,West,259,24.0,37.0,37,0.00,,,0.00,WUHU216DAVISVP2,2013-04-08 00:59:00,
2013-04-07 18:04:00,66.3,36.1,29.67,SW,232,24.0,36.0,33,0.00,,,0.00,WUHU216DAVISVP2,2013-04-08 01:04:00,
2013-04-07 18:09:00,66.5,35.5,29.67,West,265,16.0,33.0,32,0.00,,,0.00,WUHU216DAVISVP2,2013-04-08 01:09:00,
2013-04-07 18:14:00,65.7,37.8,29.67,West,264,23.0,32.0,36,0.00,,,0.00,WUHU216DAVISVP2,2013-04-08 01:14:00,
2013-04-07 18:20:00,64.3,38.7,29.67,WSW,244,21.0,40.0,39,0.00,,,0.00,WUHU216DAVISVP2,2013-04-08 01:20:00,
2013-04-07 18:25:00,64.1,37.8,29.67,WSW,240,27.0,40.0,38,0.00,,,0.00,WUHU216DAVISVP2,2013-04-08 01:25:00,
2013-04-07 18:30:00,63.4,39.2,29.67,WSW,241,26.0,40.0,41,0.00,,,0.00,WUHU216DAVISVP2,2013-04-08 01:30:00,
2013-04-07 18:35:00,63.0,39.4,29.67,WSW,245,27.0,40.0,42,0.00,,,0.00,WUHU216DAVISVP2,2013-04-08 01:35:00,
2013-04-07 18:40:00,62.4,39.5,29.67,WSW,248,30.0,39.0,43,0.00,,,0.00,WUHU216DAVISVP2,2013-04-08 01:40:00,
2013-04-07 18:45:00,62.0,39.7,29.68,WSW,242,34.0,39.0,44,0.00,,,0.00,WUHU216DAVISVP2,2013-04-08 01:45:00,
2013-04-07 18:50:00,61.8,39.6,29.69,West,259,39.0,41.0,44,0.00,,,0.00,WUHU216DAVISVP2,2013-04-08 01:50:00,
2013-04-07 18:55:00,61.6,39.5,29.69,West,267,28.0,41.0,44,0.00,,,0.00,WUHU216DAVISVP2,2013-04-08 01:55:00,
2013-04-07 19:00:00,61.4,39.3,29.69,West,265,26.0,41.0,44,0.00,,,0.00,WUHU216DAVISVP2,2013-04-08 02:00:00,
2013-04-07 19:05:00,61.1,39.5,29.69,WSW,252,29.0,41.0,45,0.00,,,0.00,WUHU216DAVISVP2,2013-04-08 02:05:00,
2013-04-07 19:10:00,60.9,39.3,29.68,WSW,238,31.0,44.0,45,0.00,,,0.00,WUHU216DAVISVP2,2013-04-08 02:10:00,
2013-04-07 19:15:00,60.6,39.1,29.67,WSW,246,23.0,44.0,45,0.00,,,0.00,WUHU216DAVISVP2,2013-04-08 02:15:00,
2013-04-07 19:20:00,60.7,39.2,29.67,WSW,243,29.0,44.0,45,0.00,,,0.00,WUHU216DAVISVP2,2013-04-08 02:20:00,
2013-04-07 19:26:00,60.5,39.0,29.67,West,268,28.0,44.0,45,0.00,,,0.00,WUHU216DAVISVP2,2013-04-08 02:26:00,
2013-04-07 19:31:00,60.6,38.5,29.67,WSW,239,26.0,42.0,44,0.00,,,0.00,WUHU216DAVISVP2,2013-04-08 02:31:00,
2013-04-07 19:36:00,60.6,37.9,29.67,WSW,258,29.0,42.0,43,0.00,,,0.00,WUHU216DAVISVP2,2013-04-08 02:36:00,
2013-04-07 19:41:00,60.5,37.8,29.67,WSW,257,29.0,40.0,43,0.00,,,0.00,WUHU216DAVISVP2,2013-04-08 02:41:00,
2013-04-07 19:46:00,60.5,37.2,29.67,WSW,246,28.0,40.0,42,0.00,,,0.00,WUHU216DAVISVP2,2013-04-08 02:46:00,
2013-04-07 19:51:00,60.4,37.7,29.66,West,259,37.0,38.0,43,0.00,,,0.00,WUHU216DAVISVP2,2013-04-08 02:51:00,
2013-04-07 19:56:00,60.1,38.0,29.66,West,271,37.0,38.0,44,0.00,,,0.00,WUHU216DAVISVP2,2013-04-08 02:56:00,
2013-04-07 20:02:00,60.0,37.9,29.65,WSW,252,28.0,41.0,44,0.00,,,0.00,WUHU216DAVISVP2,2013-04-08 03:02:00,
2013-04-07 20:07:00,60.0,37.3,29.65,West,259,28.0,41.0,43,0.00,,,0.00,WUHU216DAVISVP2,2013-04-08 03:07:00,
2013-04-07 20:12:00,59.8,37.7,29.67,WSW,251,19.0,41.0,44,0.00,,,0.00,WUHU216DAVISVP2,2013-04-08 03:12:00,
2013-04-07 20:17:00,59.7,37.7,29.67,SW,228,19.0,41.0,44,0.00,,,0.00,WUHU216DAVISVP2,2013-04-08 03:17:00,
2013-04-07 20:22:00,59.7,37.0,29.68,WSW,241,28.0,37.0,43,0.00,,,0.00,WUHU216DAVISVP2,2013-04-08 03:22:00,
2013-04-07 20:27:00,60.1,35.5,29.68,WSW,241,16.0,32.0,40,0.00,,,0.00,WUHU216DAVISVP2,2013-04-08 03:27:00,
2013-04-07 20:32:00,60.4,35.1,29.67,WSW,257,18.0,32.0,39,0.00,,,0.00,WUHU216DAVISVP2,2013-04-08 03:32:00,
2013-04-07 20:37:00,60.2,35.0,29.68,WSW,252,18.0,32.0,39,0.00,,,0.00,WUHU216DAVISVP2,2013-04-08 03:37:00,
2013-04-07 20:42:00,60.2,35.0,29.68,WSW,252,16.0,26.0,39,0.00,,,0.00,WUHU216DAVISVP2,2013-04-08 03:42:00,
2013-04-07 20:47:00,60.3,34.4,29.69,West,275,18.0,26.0,38,0.00,,,0.00,WUHU216DAVISVP2,2013-04-08 03:47:00,
2013-04-07 20:52:00,60.7,32.7,29.69,West,271,16.0,26.0,35,0.00,,,0.00,WUHU216DAVISVP2,2013-04-08 03:52:00,
2013-04-07 20:57:00,61.1,30.0,29.69,WNW,289,20.0,22.0,31,0.00,,,0.00,WUHU216DAVISVP2,2013-04-08 03:57:00,
2013-04-07 21:03:00,62.7,29.8,29.69,WNW,286,23.0,26.0,29,0.00,,,0.00,WUHU216DAVISVP2,2013-04-08 04:03:00,
2013-04-07 21:08:00,62.7,30.6,29.69,West,262,15.0,27.0,30,0.00,,,0.00,WUHU216DAVISVP2,2013-04-08 04:08:00,
2013-04-07 21:13:00,62.5,30.4,29.70,NW,307,17.0,27.0,30,0.00,,,0.00,WUHU216DAVISVP2,2013-04-08 04:13:00,
2013-04-07 21:18:00,62.6,31.3,29.69,WNW,296,13.0,27.0,31,0.00,,,0.00,WUHU216DAVISVP2,2013-04-08 04:18:00,
2013-04-07 21:23:00,62.2,31.2,29.69,NW,306,13.0,21.0,31,0.00,,,0.00,WUHU216DAVISVP2,2013-04-08 04:23:00,
2013-04-07 21:28:00,62.2,31.2,29.69,NW,315,14.0,25.0,31,0.00,,,0.00,WUHU216DAVISVP2,2013-04-08 04:28:00,
2013-04-07 21:33:00,62.2,32.7,29.69,NW,323,12.0,25.0,33,0.00,,,0.00,WUHU216DAVISVP2,2013-04-08 04:33:00,
2013-04-07 21:38:00,61.9,33.0,29.69,NW,312,12.0,25.0,34,0.00,,,0.00,WUHU216DAVISVP2,2013-04-08 04:38:00,
2013-04-07 21:43:00,61.7,32.8,29.69,WNW,293,15.0,25.0,34,0.00,,,0.00,WUHU216DAVISVP2,2013-04-08 04:43:00,
2013-04-07 21:48:00,61.6,32.0,29.68,NW,321,12.0,23.0,33,0.00,,,0.00,WUHU216DAVISVP2,2013-04-08 04:48:00,
2013-04-07 21:53:00,61.8,33.6,29.68,NW,321,11.0,22.0,35,0.00,,,0.00,WUHU216DAVISVP2,2013-04-08 04:53:00,
2013-04-07 21:58:00,61.8,33.6,29.69,NW,313,9.0,22.0,35,0.00,,,0.00,WUHU216DAVISVP2,2013-04-08 04:58:00,
2013-04-07 22:03:00,61.4,33.3,29.69,NW,319,10.0,22.0,35,0.00,,,0.00,WUHU216DAVISVP2,2013-04-08 05:03:00,
2013-04-07 22:09:00,61.8,33.6,29.69,North,5,10.0,22.0,35,0.00,,,0.00,WUHU216DAVISVP2,2013-04-08 05:09:00,
2013-04-07 22:14:00,62.0,33.3,29.69,NW,317,5.0,20.0,34,0.00,,,0.00,WUHU216DAVISVP2,2013-04-08 05:14:00,
2013-04-07 22:19:00,62.1,32.6,29.69,North,355,2.0,20.0,33,0.00,,,0.00,WUHU216DAVISVP2,2013-04-08 05:19:00,
2013-04-07 22:24:00,62.0,32.5,29.69,West,279,13.0,19.0,33,0.00,,,0.00,WUHU216DAVISVP2,2013-04-08 05:24:00,
2013-04-07 22:29:00,61.7,33.7,29.69,WNW,302,11.0,16.0,35,0.00,,,0.00,WUHU216DAVISVP2,2013-04-08 05:29:00,
2013-04-07 22:34:00,61.3,34.6,29.69,WNW,296,11.0,15.0,37,0.00,,,0.00,WUHU216DAVISVP2,2013-04-08 05:34:00,
2013-04-07 22:39:00,60.9,35.6,29.68,NW,318,10.0,15.0,39,0.00,,,0.00,WUHU216DAVISVP2,2013-04-08 05:39:00,
2013-04-07 22:44:00,60.8,36.2,29.68,NNW,343,16.0,20.0,40,0.00,,,0.00,WUHU216DAVISVP2,2013-04-08 05:44:00,
2013-04-07 22:49:00,60.7,36.7,29.68,NNW,347,8.0,20.0,41,0.00,,,0.00,WUHU216DAVISVP2,2013-04-08 05:49:00,
2013-04-07 22:55:00,60.6,36.0,29.68,NNW,343,7.0,20.0,40,0.00,,,0.00,WUHU216DAVISVP2,2013-04-08 05:55:00,
2013-04-07 23:00:00,60.1,35.5,29.68,NNW,331,6.0,20.0,40,0.00,,,0.00,WUHU216DAVISVP2,2013-04-08 06:00:00,
2013-04-07 23:05:00,59.5,35.1,29.68,NNW,331,0.0,14.0,40,0.00,,,0.00,WUHU216DAVISVP2,2013-04-08 06:05:00,
2013-04-07 23:10:00,59.6,35.2,29.68,West,259,6.0,12.0,40,0.00,,,0.00,WUHU216DAVISVP2,2013-04-08 06:10:00,
2013-04-07 23:15:00,60.0,35.0,29.67,WSW,242,4.0,10.0,39,0.00,,,0.00,WUHU216DAVISVP2,2013-04-08 06:15:00,
2013-04-07 23:20:00,60.2,35.1,29.67,West,266,10.0,13.0,39,0.00,,,0.00,WUHU216DAVISVP2,2013-04-08 06:20:00,
2013-04-07 23:25:00,60.3,34.4,29.67,WSW,257,5.0,13.0,38,0.00,,,0.00,WUHU216DAVISVP2,2013-04-08 06:25:00,
2013-04-07 23:30:00,60.4,34.5,29.67,WSW,253,9.0,18.0,38,0.00,,,0.00,WUHU216DAVISVP2,2013-04-08 06:30:00,
2013-04-07 23:35:00,60.8,34.8,29.67,WNW,284,15.0,25.0,38,0.00,,,0.00,WUHU216DAVISVP2,2013-04-08 06:35:00,
2013-04-07 23:40:00,60.7,34.8,29.66,WSW,250,15.0,25.0,38,0.00,,,0.00,WUHU216DAVISVP2,2013-04-08 06:40:00,
2013-04-07 23:45:00,60.6,34.7,29.66,West,273,19.0,25.0,38,0.00,,,0.00,WUHU216DAVISVP2,2013-04-08 06:45:00,
2013-04-07 23:50:00,60.5,34.6,29.65,West,275,4.0,25.0,38,0.00,,,0.00,WUHU216DAVISVP2,2013-04-08 06:50:00,
2013-04-07 23:55:00,60.2,34.5,29.65,SSW,202,5.0,23.0,38,0.00,,,0.00,WUHU216DAVISVP2,2013-04-08 06:55:00,